TimeMST,TemperatureF,Dew PointF,Humidity,Sea Level PressureIn,VisibilityMPH,Wind Direction,Wind SpeedMPH,Gust SpeedMPH,PrecipitationIn,Events,Conditions,WindDirDegrees,DateUTC
12:53 AM,26.1,16.0,66,29.65,10.0,NW,4.6,-,N/A,,Clear,320,2013-03-04 07:53:00
1:53 AM,24.1,14.0,65,29.67,10.0,North,3.5,-,N/A,,Clear,360,2013-03-04 08:53:00
2:53 AM,21.9,12.0,66,29.67,10.0,Variable,3.5,-,N/A,,Clear,0,2013-03-04 09:53:00
3:53 AM,23.0,10.9,60,29.68,10.0,Variable,6.9,-,N/A,,Clear,0,2013-03-04 10:53:00
4:53 AM,21.9,7.0,53,29.70,10.0,Variable,6.9,25.3,N/A,,Clear,0,2013-03-04 11:53:00
5:53 AM,21.0,1.9,44,29.73,10.0,WNW,13.8,33.4,N/A,,Clear,290,2013-03-04 12:53:00
6:53 AM,19.0,3.9,52,29.73,10.0,WNW,13.8,33.4,N/A,,Clear,300,2013-03-04 13:53:00
7:53 AM,19.0,3.0,50,29.77,10.0,WNW,13.8,32.2,N/A,,Clear,290,2013-03-04 14:53:00
8:53 AM,19.9,3.0,48,29.77,10.0,West,15.0,42.6,N/A,,Clear,280,2013-03-04 15:53:00
9:53 AM,19.0,5.0,54,29.83,10.0,WNW,21.9,49.5,N/A,,Clear,290,2013-03-04 16:53:00
10:14 AM,17.6,5.0,58,29.72,9.0,WNW,24.2,41.4,0.00,,Mostly Cloudy,300,2013-03-04 17:14:00
10:31 AM,19.4,3.2,49,29.72,10.0,WNW,23.0,42.6,0.00,,Scattered Clouds,300,2013-03-04 17:31:00
10:53 AM,19.9,3.9,50,29.84,10.0,WNW,23.0,47.2,0.00,,Partly Cloudy,290,2013-03-04 17:53:00
11:41 AM,19.4,6.8,58,29.73,10.0,West,29.9,47.2,0.00,Snow,Light Snow,280,2013-03-04 18:41:00
11:53 AM,19.0,3.9,52,29.86,5.0,West,28.8,48.3,0.00,Snow,Light Snow,280,2013-03-04 18:53:00
11:55 AM,17.6,5.0,58,29.73,1.8,West,32.2,44.9,0.00,Snow,Light Snow,270,2013-03-04 18:55:00
12:08 PM,15.8,3.2,58,29.74,3.0,WNW,19.6,40.3,0.00,Snow,Light Snow,300,2013-03-04 19:08:00
12:16 PM,17.6,3.2,53,29.74,9.0,WNW,26.5,38.0,0.00,,Scattered Clouds,290,2013-03-04 19:16:00
12:26 PM,15.8,1.4,53,29.75,9.0,WNW,20.7,41.4,0.00,,Mostly Cloudy,290,2013-03-04 19:26:00
12:53 PM,16.0,3.0,57,29.91,3.0,WNW,26.5,39.1,0.00,Snow,Light Snow,290,2013-03-04 19:53:00
1:51 PM,14.0,-0.4,53,29.80,8.0,West,24.2,44.9,0.00,,Overcast,280,2013-03-04 20:51:00
1:53 PM,14.0,-0.0,54,29.96,8.0,WNW,24.2,40.3,0.00,,Overcast,290,2013-03-04 20:53:00
2:17 PM,15.8,-0.4,49,29.81,3.0,WNW,25.3,50.6,0.00,Snow,Light Snow,290,2013-03-04 21:17:00
2:30 PM,15.8,-0.4,49,29.81,9.0,WNW,15.0,35.7,0.00,,Overcast,300,2013-03-04 21:30:00
2:46 PM,14.0,3.2,62,29.82,1.8,West,18.4,38.0,0.00,Snow,Light Snow,280,2013-03-04 21:46:00
2:53 PM,14.0,3.0,62,30.00,2.0,NW,11.5,35.7,0.00,Snow,Light Snow,310,2013-03-04 21:53:00
3:03 PM,14.0,3.2,62,29.83,6.0,West,10.4,39.1,0.00,Snow,Light Snow,280,2013-03-04 22:03:00
3:22 PM,14.0,1.4,57,29.83,9.0,WNW,18.4,38.0,0.00,,Overcast,300,2013-03-04 22:22:00
3:53 PM,15.1,1.0,54,30.02,10.0,WNW,19.6,40.3,0.00,,Overcast,300,2013-03-04 22:53:00
4:53 PM,14.0,1.0,56,30.07,10.0,WNW,19.6,32.2,0.00,,Overcast,300,2013-03-04 23:53:00
5:53 PM,12.9,-0.0,56,30.11,10.0,WNW,11.5,28.8,N/A,,Partly Cloudy,300,2013-03-05 00:53:00
6:53 PM,12.9,1.0,59,30.15,10.0,NW,11.5,28.8,N/A,,Partly Cloudy,310,2013-03-05 01:53:00
7:53 PM,12.9,1.0,59,30.19,10.0,WNW,11.5,21.9,N/A,,Mostly Cloudy,300,2013-03-05 02:53:00
8:53 PM,12.0,1.0,61,30.21,10.0,WNW,11.5,20.7,N/A,,Scattered Clouds,300,2013-03-05 03:53:00
9:53 PM,10.9,-0.0,61,30.24,10.0,Variable,3.5,-,N/A,,Clear,0,2013-03-05 04:53:00
10:53 PM,7.0,-0.9,70,30.24,10.0,SSW,6.9,-,N/A,,Clear,200,2013-03-05 05:53:00
11:53 PM,7.0,-0.9,70,30.27,10.0,SSW,9.2,16.1,N/A,,Clear,200,2013-03-05 06:53:00